Weather in Valday

Russia / Novgorod Oblast     57°58′48″N   33°14′48″E
temp.,
°C
wind,
m/s
gust,
m/s
humid.,
%
clouds,
%
prec.,
mm/h
press.,
hPa
HPBL,
m
3 march, wed
wed300:00−3nw3119457 0.1 1017513
03:00−2wnw4109560 0.2 1018576
06:00−2wnw41094100 0.2 1017704
09:00−2w51093100 0.3 1017689
12:00−2w51091100 0.1 1015699
15:00−1w61088100 0.1 1013873
18:00+1w51383100 0.1 10101233
21:00+1w71496100 0.4 10061027
4 march, thu
thu400:00+1w71497100 1.1 10021028
03:000wnw71397100 3.0 10021069
06:00−3wnw4119174 0.6 1002654
09:00−4wnw498967 0.6 1003574
12:00−2nw367766 0.0 1002782
15:00−1nw357273 0.0 10021029
18:00−4nw228673 0.1 100256
21:00−5wnw129360 0.1 100322
5 march, fri
fri500:00−5nnw489095 1.1 1004626
03:00−7nw389297 1.2 1005613
06:00−8nw4892100 0.1 1006589
09:00−7nw4788100 0.3 1008690
12:00−6nw4678100 0.2 1009882
15:00−5wnw4677100 0.4 1011920
18:00−7nw3787100 0.2 1012658
21:00−8nnw3792100 0.4 1015582
6 march, sat
sat600:00−11n249682 0.1 1016124
03:00−12nw129652 0.1 101723
06:00−13w249517 0.0 1018107
09:00−10w379240 0.0 1018358
12:00−7w4781100 0.1 1017879
15:00−5w4772100 0.2 10151129
18:00−6sw4979100 0.1 10121035
21:00−6sw71490100 0.3 10071102
7 march, sun
sun700:00−5sw81692100 1.6 10001404
03:00−4wsw81793100 3.9 9941294
06:00−2wsw81795100 2.9 9911441
09:00−9wnw5126383 3.8 9931222
12:00−7wsw6128467 0.2 9931369
15:00−7wnw7127983 0.9 9921684
18:00−8w51192100 0.9 9931243
21:00−9nnw51091100 2.3 995812